Regional Weather Roundup
Issued by NWS

Home | Current Version | Previous Version | Text Only | Print | Product List | Glossary On
Versions: 1 2 3 4 5 6 7 8 9 10 11 12 13 14 15 16 17 18 19 20 21 22 23 24 25 26 27
000
ASUS42 KKEY 241010
RWRKEY

FLORIDA REGIONAL WEATHER ROUNDUP FOR THE FLORIDA KEYS
NATIONAL WEATHER SERVICE KEY WEST FLORIDA
600 AM EDT WED AUG 24 2016

...SOUTH FLORIDA AND THE KEYS...

CITY           SKY/WX    TMP DP  RH WIND       PRES   REMARKS
FORT MYERS     PTCLDY    79  77  94 NE8       30.08R
SW REGIONAL AP PTCLDY    79  76  90 NE6       30.08R
NAPLES         CLEAR     80  77  90 NE5       30.07R
MIAMI          CLOUDY    83  76  79 N6        30.04S HX  91
WEST KENDALL   CLOUDY    78  75  90 N5        30.04F
HOMESTEAD      CLOUDY    84  77  81 NE10      30.03S HX  93
MARATHON       CLOUDY    83  76  79 NE8       30.03S THUNDER HX  91
BOCA CHICA NAS MOCLDY    84  79  85 E15       30.04S THUNDER HX  96
KEY WEST INTL  CLOUDY    82  78  88 NE6       30.04S HX  91

...INTERNATIONAL WEATHER...

CITY           SKY/WX    TMP DP  RH WIND       PRES   REMARKS
NASSAU BAHAMAS NOT AVBL
CANCUN MEXICO  MOCLDY    77  77 100 CALM      30.01S
COZUMEL MEXICO PTCLDY    77  77 100 NE3       30.01S

ADJACENT COASTAL WATERS...

STATION/POSITION TIME  SKY/WX   TEMP    WIND        PRES    WAVE
                                AIR SEA DIR/SP/G            HT/PER
                 (UTC)          (F)     (DEG/KT/KT) (MB)    (FT/S)
PULASKI SHOAL LI 1000            83      CALM  /  1 1017.4S
SAND KEY         0950            81     130/ 16/ 18 1017.5F
LONG KEY         0900            86 89   90/ 20/ 25 1016.9F
FOWEY ROCKS      1000            84 86   70/ 11/ 12 1017.5R

$$




USA.gov is the U.S. government's official web portal to all federal, state and local government web resources and services.